Вернуться в каталог

COSMOS 2251 DEB

АктивенLEO
NORAD 35716·DEBRIS·🇷🇺 Russia

Запущен Jun 16, 1993 с Plesetsk Cosmodrome

Loading…

Ближайшие Пролёты (ближайшие 24 часа)

TLE

УстаревающийSource: Space-Track

Эпоха: Sep 12, 2026, 16:56 UTC

1 35716U 93036AQM 26255.70615137  .00000459  00000-0  96109-4 0  9990
2 35716  73.9947  29.7937 0088803 165.7669 255.2447 14.60382554916268

Отслеживайте COSMOS 2251 DEB в реальном времени с AllMySat

Download on the App Store